Latest Weather Observations for Edinburgh

IDS60801

Issued at 5:02 pm CDT Sunday 21 December 2014 (issued every 30 minutes, with the page automatically refreshed every 10 minutes)

About weather observations | Map of weather stations | Latest weather observations for SA | Other Formats
Station Details ID: 023083 Name: EDINBURGH RAAF Lat: -34.71 Lon: 138.62 Height: 16.54 m
Data from the previous 72 hours. | See also: Recent months at Edinburgh
Date/Time
CDT
Temp
°C
App
Temp
°C
Dew
Point
Rel
Hum
%
Delta-T
°C
Wind Press
QNH
hPa
Press
MSL
hPa
Rain
since 9 am
mm
Dir
 
Spd
km/h
Gust
km/h
Spd
kts
Gust
kts
21/05:00pm 35.0 30.7 3.5 14 16.5 SSW 15 24 8 13 1008.1 1008.1 0.0
21/04:30pm 34.9 29.7 3.5 14 16.4 SSW 20 28 11 15 1008.5 1008.5 0.0
21/04:00pm 34.5 29.4 4.1 15 16.0 SSW 20 30 11 16 1008.9 1008.8 0.0
21/03:30pm 33.0 27.8 5.5 18 14.7 SSW 22 33 12 18 1009.2 1009.1 0.0
21/03:00pm 34.8 29.4 6.2 17 15.6 SW 24 32 13 17 1009.4 1009.3 0.0
21/02:30pm 34.7 27.2 3.3 14 16.4 WSW 32 39 17 21 1009.6 1009.5 0.0
21/02:00pm 35.6 27.3 4.0 14 16.7 WSW 37 50 20 27 1010.0 1009.9 0.0
21/01:30pm 36.1 29.1 2.2 12 17.5 W 28 37 15 20 1010.2 1010.1 0.0
21/01:00pm 35.9 28.7 3.2 13 17.1 W 30 41 16 22 1010.4 1010.3 0.0
21/12:30pm 35.2 27.7 3.7 14 16.5 W 32 37 17 20 1010.6 1010.5 0.0
21/12:00pm 34.3 26.9 4.0 15 15.9 W 32 41 17 22 1010.9 1010.8 0.0
21/11:30am 35.8 29.2 2.0 12 17.3 NW 26 37 14 20 1010.9 1010.8 0.0
21/11:00am 35.0 28.3 1.4 12 17.0 NNW 26 35 14 19 1010.9 1010.8 0.0
21/10:30am 34.6 28.4 2.2 13 16.6 NNW 24 33 13 18 1011.1 1011.0 0.0
21/10:00am 33.2 27.0 2.1 14 15.7 NNW 24 33 13 18 1011.2 1011.1 0.0
21/09:30am 32.1 26.8 3.1 16 14.8 NNE 20 30 11 16 1011.4 1011.3 0.0
21/09:00am 30.1 24.2 4.0 19 13.4 NNE 24 32 13 17 1011.4 1011.3 0.0
21/08:30am 28.4 22.4 5.3 23 12.0 NE 26 32 14 17 1011.5 1011.4 0.0
21/08:00am 27.1 21.1 5.4 25 11.2 NE 26 33 14 18 1011.5 1011.4 0.0
21/07:30am 25.9 20.3 5.5 27 10.5 NE 24 30 13 16 1011.2 1011.1 0.0
21/07:00am 21.4 19.6 9.6 47 6.3 NE 9 17 5 9 1011.1 1011.0 0.0
21/06:30am 15.7 15.5 8.9 64 3.5 CALM 0 0 0 0 1011.0 1010.9 0.0
21/06:00am 15.2 15.0 8.9 66 3.2 CALM 0 0 0 0 1010.9 1010.8 0.0
21/05:30am 16.2 16.0 9.2 63 3.6 CALM 0 0 0 0 1010.9 1010.8 0.0
21/05:00am 17.5 16.4 9.9 61 4.0 S 6 7 3 4 1010.9 1010.8 0.0
21/04:30am 17.2 15.9 9.9 62 3.9 SSW 7 9 4 5 1011.0 1010.9 0.0
21/04:00am 15.8 14.1 9.7 67 3.2 WSW 9 11 5 6 1011.0 1010.9 0.0
21/03:30am 16.6 15.3 9.3 62 3.8 NNW 6 9 3 5 1011.0 1010.9 0.0
21/03:00am 18.1 16.7 9.5 57 4.5 NE 7 9 4 5 1011.1 1011.0 0.0
21/02:30am 18.5 17.0 9.3 55 4.8 NW 7 11 4 6 1011.8 1011.7 0.0
21/02:00am 21.7 18.5 8.6 43 6.9 NE 15 20 8 11 1012.1 1012.0 0.0
21/01:30am 18.8 17.4 9.6 55 4.9 NE 7 11 4 6 1011.8 1011.7 0.0
21/01:00am 18.9 18.1 9.7 55 4.9 WSW 4 7 2 4 1012.0 1011.9 0.0
21/12:30am 20.7 19.1 8.7 46 6.3 NNW 7 9 4 5 1012.3 1012.2 0.0
21/12:00am 22.3 21.4 9.1 43 7.1 E 4 9 2 5 1012.3 1012.2 0.0
 
Date/Time
CDT
Temp
°C
App
Temp
°C
Dew
Point
Rel
Hum
%
Delta-T
°C
Wind Press
QNH
hPa
Press
MSL
hPa
Rain
since 9 am
mm
Dir
 
Spd
km/h
Gust
km/h
Spd
kts
Gust
kts
20/11:30pm 23.0 21.5 9.0 41 7.5 SE 7 11 4 6 1012.7 1012.6 0.0
20/11:00pm 22.1 21.6 10.6 48 6.3 SE 4 11 2 6 1013.0 1012.9 0.0
20/10:30pm 21.9 22.6 12.2 54 5.5 CALM 0 0 0 0 1013.3 1013.2 0.0
20/10:00pm 22.6 22.7 11.4 49 6.3 NNE 2 6 1 3 1013.5 1013.4 0.0
20/09:30pm 22.4 23.1 13.5 57 5.1 SSW 2 6 1 3 1013.7 1013.6 0.0
20/09:00pm 22.7 22.0 14.3 59 4.9 SW 11 13 6 7 1013.8 1013.7 0.0
20/08:30pm 24.2 22.1 13.7 52 6.1 WSW 17 20 9 11 1013.5 1013.4 0.0
20/08:00pm 27.7 24.4 6.5 26 11.2 SSW 13 15 7 8 1013.0 1012.9 0.0
20/07:30pm 28.3 24.6 6.4 25 11.6 SSW 15 19 8 10 1012.8 1012.7 0.0
20/07:00pm 28.2 24.6 6.9 26 11.3 SSW 15 19 8 10 1012.8 1012.7 0.0
20/06:30pm 29.0 25.6 5.8 23 12.2 SW 13 19 7 10 1013.0 1012.9 0.0
20/06:00pm 29.2 25.3 5.3 22 12.4 SW 15 22 8 12 1013.1 1013.0 0.0
20/05:30pm 29.6 25.8 5.6 22 12.6 SW 15 20 8 11 1013.3 1013.2 0.0
20/05:00pm 28.7 25.0 6.1 24 11.9 SW 15 24 8 13 1013.6 1013.5 0.0
20/04:30pm 29.0 24.5 7.0 25 11.8 SW 20 28 11 15 1013.8 1013.7 0.0
20/04:00pm 28.4 23.0 8.1 28 11.0 WSW 26 33 14 18 1014.2 1014.1 0.0
20/03:30pm 28.9 23.8 9.1 29 11.0 WSW 26 33 14 18 1014.3 1014.2 0.0
20/03:00pm 29.4 25.1 7.9 26 11.7 SW 20 35 11 19 1014.7 1014.6 0.0
20/02:30pm 28.4 24.5 7.1 26 11.4 SSW 17 24 9 13 1015.2 1015.1 0.0
20/02:00pm 28.6 25.6 6.1 24 11.8 SE 11 20 6 11 1015.7 1015.6 0.0
20/01:30pm 27.7 25.1 5.9 25 11.4 NW 9 15 5 8 1016.3 1016.2 0.0
20/01:00pm 27.3 25.3 6.1 26 11.1 S 6 13 3 7 1016.9 1016.8 0.0
20/12:30pm 26.0 22.9 5.6 27 10.5 E 11 19 6 10 1017.3 1017.2 0.0
20/12:00pm 25.3 22.2 5.5 28 10.1 ESE 11 20 6 11 1017.5 1017.4 0.0
20/11:30am 24.8 22.2 6.1 30 9.6 NE 9 17 5 9 1018.2 1018.1 0.0
20/11:00am 23.3 20.5 5.2 31 9.1 N 9 17 5 9 1018.6 1018.5 0.0
20/10:30am 22.5 20.0 6.7 36 8.1 NNW 9 19 5 10 1018.7 1018.6 0.0
20/10:00am 21.4 18.9 6.5 38 7.6 ENE 9 17 5 9 1019.0 1018.9 0.0
20/09:30am 20.4 18.3 8.1 45 6.4 N 9 15 5 8 1019.4 1019.3 0.0
20/09:00am 19.3 17.8 8.6 50 5.6 NW 6 9 3 5 1019.7 1019.6 0.0
20/08:30am 18.0 16.9 8.6 54 4.8 NNE 4 9 2 5 1019.5 1019.4 0.0
20/08:00am 17.1 16.5 8.8 58 4.3 N 2 7 1 4 1019.4 1019.3 0.0
20/07:30am 15.7 15.6 9.4 66 3.2 CALM 0 0 0 0 1019.4 1019.3 0.0
20/07:00am 13.9 13.7 9.1 73 2.4 CALM 0 0 0 0 1019.3 1019.2 0.0
20/06:30am 12.0 11.6 8.3 78 1.8 CALM 0 0 0 0 1019.1 1019.0 0.0
20/06:00am 12.4 11.5 7.7 73 2.3 SSE 2 6 1 3 1018.9 1018.8 0.0
20/05:30am 13.3 11.4 9.0 75 2.2 NE 9 13 5 7 1018.5 1018.4 0.0
20/05:00am 12.9 11.4 9.0 77 2.0 NE 7 9 4 5 1018.3 1018.2 0.0
20/04:30am 12.2 10.3 7.7 74 2.2 NNE 7 9 4 5 1018.1 1018.0 0.0
20/04:00am 13.4 12.0 8.9 74 2.3 N 6 7 3 4 1018.2 1018.1 0.0
20/03:30am 13.2 12.8 8.1 71 2.5 CALM 0 0 0 0 1018.4 1018.3 0.0
20/03:00am 14.0 13.7 8.8 71 2.6 CALM 0 0 0 0 1018.4 1018.3 0.0
20/02:30am 13.6 12.4 8.0 69 2.8 E 4 7 2 4 1018.7 1018.6 0.0
20/02:00am 14.3 12.6 7.6 64 3.3 ENE 6 7 3 4 1019.1 1019.0 0.0
20/01:30am 15.4 13.8 8.9 65 3.3 SE 7 11 4 6 1019.4 1019.3 0.0
20/01:00am 15.5 14.5 8.7 64 3.5 SE 4 7 2 4 1019.8 1019.7 0.0
20/12:30am 15.7 14.3 8.7 63 3.6 SE 6 9 3 5 1020.1 1020.0 0.0
20/12:00am 15.9 14.3 8.6 62 3.7 SE 7 9 4 5 1020.3 1020.2 0.0
 
Date/Time
CDT
Temp
°C
App
Temp
°C
Dew
Point
Rel
Hum
%
Delta-T
°C
Wind Press
QNH
hPa
Press
MSL
hPa
Rain
since 9 am
mm
Dir
 
Spd
km/h
Gust
km/h
Spd
kts
Gust
kts
19/11:30pm 16.2 14.2 8.7 61 3.8 SE 9 11 5 6 1020.4 1020.3 0.0
19/11:00pm 16.5 13.7 8.7 60 4.0 SSE 13 19 7 10 1020.6 1020.5 0.0
19/10:30pm 17.0 13.8 8.4 57 4.4 SSE 15 19 8 10 1020.6 1020.5 0.0
19/10:00pm 17.7 14.5 8.3 54 4.8 SE 15 20 8 11 1020.4 1020.3 0.0
19/09:30pm 18.4 14.7 8.1 51 5.3 SE 17 24 9 13 1020.1 1020.0 0.0
19/09:00pm 18.9 15.3 9.7 55 4.9 S 19 24 10 13 1019.7 1019.6 0.0
19/08:30pm 19.2 14.3 9.9 55 4.9 S 26 35 14 19 1019.6 1019.5 0.0
19/08:00pm 19.7 14.1 10.1 54 5.2 S 30 35 16 19 1019.5 1019.4 0.0
19/07:30pm 20.6 15.4 10.1 51 5.7 S 28 35 15 19 1019.4 1019.3 0.0
19/07:00pm 21.2 15.6 10.1 49 6.0 S 30 35 16 19 1019.2 1019.1 0.0
19/06:30pm 21.6 15.6 8.8 44 6.8 SSW 30 37 16 20 1019.1 1019.0 0.0
19/06:00pm 21.9 15.8 8.1 41 7.2 SSW 30 37 16 20 1018.9 1018.8 0.0
19/05:30pm 22.5 16.7 7.9 39 7.6 SSW 28 35 15 19 1018.8 1018.7 0.0
19/05:00pm 22.6 16.6 7.2 37 8.0 SSW 28 37 15 20 1018.9 1018.8 0.0
19/04:30pm 22.6 17.3 8.3 40 7.5 SSW 26 35 14 19 1019.2 1019.1 0.0
19/04:00pm 22.5 17.2 8.6 41 7.4 SW 26 35 14 19 1019.4 1019.3 0.0
19/03:30pm 22.4 17.7 9.2 43 7.1 SSW 24 33 13 18 1019.7 1019.6 0.0
19/03:00pm 21.8 17.2 8.3 42 7.1 SW 22 30 12 16 1019.9 1019.8 0.0
19/02:30pm 22.3 18.1 8.4 41 7.3 SW 20 32 11 17 1020.1 1020.0 0.0
19/02:00pm 22.0 17.6 8.9 43 7.0 SW 22 32 12 17 1020.4 1020.3 0.0
19/01:30pm 22.2 17.6 8.3 41 7.3 SW 22 35 12 19 1020.4 1020.3 0.0
19/01:00pm 20.8 15.8 8.1 44 6.6 SSW 24 35 13 19 1020.7 1020.6 0.0
19/12:30pm 21.2 15.4 7.8 42 6.9 SW 28 37 15 20 1020.8 1020.7 0.0
19/12:00pm 21.1 15.1 7.0 40 7.2 SW 28 41 15 22 1020.6 1020.5 0.0
19/11:30am 21.2 17.2 6.7 39 7.3 SW 17 28 9 15 1020.6 1020.5 0.0
19/11:00am 20.5 17.3 5.3 37 7.5 SE 11 17 6 9 1020.5 1020.4 0.0
19/10:30am 19.6 16.3 4.5 37 7.2 S 11 19 6 10 1020.6 1020.5 0.0
19/10:00am 19.4 17.0 5.1 39 7.0 S 7 13 4 7 1020.6 1020.5 0.0
19/09:30am 18.2 14.5 4.4 40 6.5 SSW 13 22 7 12 1020.7 1020.6 0.0
19/09:00am 18.2 15.1 5.4 43 6.2 SSE 11 20 6 11 1020.4 1020.3 0.0
19/08:30am 17.1 14.2 6.3 49 5.3 SSE 11 17 6 9 1020.2 1020.1 0.0
19/08:00am 16.6 14.4 6.4 51 5.0 SSE 7 13 4 7 1019.9 1019.8 0.0
19/07:30am 15.1 14.3 6.7 57 4.1 CALM 0 6 0 3 1019.6 1019.5 0.0
19/07:00am 13.1 11.1 7.1 67 2.9 N 7 7 4 4 1019.1 1019.0 0.0
19/06:30am 12.4 11.3 6.9 69 2.6 SE 2 6 1 3 1018.7 1018.6 0.0
19/06:00am 11.0 9.4 6.2 72 2.2 SE 4 7 2 4 1018.4 1018.3 0.0
19/05:30am 11.4 9.4 6.3 71 2.4 NE 6 7 3 4 1018.2 1018.1 0.0
19/05:00am 11.9 9.9 6.4 69 2.6 NNE 6 9 3 5 1018.2 1018.1 0.0
19/04:30am 13.1 11.3 7.1 67 2.9 ESE 6 7 3 4 1017.9 1017.8 0.0
19/04:00am 11.4 10.0 5.7 68 2.6 SSE 2 6 1 3 1017.9 1017.8 0.0
19/03:30am 13.7 11.8 6.8 63 3.3 ESE 6 9 3 5 1017.8 1017.7 0.0
19/03:00am 13.8 11.8 6.9 63 3.3 SE 7 9 4 5 1017.9 1017.8 0.0
19/02:30am 14.1 12.1 7.2 63 3.4 SE 7 9 4 5 1018.1 1018.0 0.0
19/02:00am 14.4 12.4 7.2 62 3.5 SSE 7 9 4 5 1018.1 1018.0 0.0
19/01:30am 14.6 12.6 7.2 61 3.6 SSE 7 9 4 5 1018.1 1018.0 0.0
19/01:00am 15.1 12.8 7.4 60 3.8 SSE 9 13 5 7 1018.0 1017.9 0.0
19/12:30am 15.3 12.9 7.1 58 4.0 S 9 15 5 8 1018.0 1017.9 0.0
19/12:00am 15.7 12.8 6.4 54 4.5 S 11 15 6 8 1018.0 1017.9 0.0
 
Date/Time
CDT
Temp
°C
App
Temp
°C
Dew
Point
Rel
Hum
%
Delta-T
°C
Wind Press
QNH
hPa
Press
MSL
hPa
Rain
since 9 am
mm
Dir
 
Spd
km/h
Gust
km/h
Spd
kts
Gust
kts
18/11:30pm 16.1 12.4 6.3 52 4.8 S 15 24 8 13 1017.8 1017.7 0.0
18/11:00pm 16.6 12.3 5.3 47 5.4 S 17 24 9 13 1017.4 1017.3 0.0
18/10:30pm 17.1 13.0 6.3 49 5.3 S 17 24 9 13 1017.1 1017.0 0.0
18/10:00pm 17.2 12.6 6.7 50 5.2 SSW 20 24 11 13 1016.7 1016.6 0.0
18/09:30pm 17.4 13.0 7.5 52 5.0 SSW 20 26 11 14 1016.4 1016.3 0.0
18/09:00pm 17.6 13.2 7.4 51 5.1 SSW 20 26 11 14 1016.1 1016.0 0.0
18/08:30pm 18.1 13.0 7.8 51 5.2 SSW 24 30 13 16 1015.9 1015.8 0.0
18/08:00pm 18.8 13.9 8.5 51 5.3 SSW 24 32 13 17 1015.5 1015.4 0.0
18/07:30pm 19.2 13.6 10.2 56 4.8 SSW 30 39 16 21 1015.1 1015.0 0.0
18/07:00pm 19.6 13.1 10.3 55 5.0 SSW 35 43 19 23 1014.8 1014.7 0.0
18/06:30pm 20.5 14.0 10.3 52 5.5 SSW 35 43 19 23 1014.4 1014.3 0.0
18/06:00pm 21.3 14.5 9.2 46 6.4 SSW 35 44 19 24 1013.8 1013.7 0.0
18/05:30pm 22.0 15.2 9.2 44 6.8 SSW 35 43 19 23 1013.5 1013.4 0.0

Other Formats:

Comma delimited format used in spreadsheet applications
http://www.bom.gov.au/fwo/IDS60801/IDS60801.95676.axf

JavaScript Object Notation format (JSON) in row-major order
http://www.bom.gov.au/fwo/IDS60801/IDS60801.95676.json